[[{"header":{"parameterUnit":"m.s-1","parameterCategory":1,"la1":30.2992,"la2":30.254,"lo1":-89.0895,"lo2":-89.0443,"dy":0.0025,"dx":0.0025,"nx":19,"ny":19,"refTime":"2026-04-26T21:00:00:Z","depth":0,"parameterNumber":2,"parameterNumberName":"U-component_of_WINDS"},"data":[0,0,0,-0.3366,-0.3365,-0.3314,-0.3314,-0.3265,-0.3264,0,0,0,0,0,0,0,0,0,0,0,-0.3389,-0.3389,-0.3366,-0.3365,-0.3314,-0.3314,-0.3265,-0.3264,0,0,0,0,0,0,0,0,0,0,0,-0.3389,-0.3389,-0.3389,-0.3365,-0.3314,-0.3314,-0.3265,-0.3298,0,0,0,0,0,0,0,0,0,0,-0.3345,-0.3373,-0.3389,-0.3389,-0.3365,-0.3314,-0.3314,-0.3299,-0.3296,-0.3294,0,-0.3292,0,-0.3278,-0.3262,-0.3262,0,0,0,-0.3359,-0.3376,-0.3355,-0.3388,-0.3364,-0.3315,-0.3336,-0.3297,-0.3293,-0.3289,-0.3292,-0.3289,-0.3277,-0.3262,-0.3261,-0.3265,-0.3266,0,0,-0.3362,-0.3384,-0.3358,-0.3353,-0.336,-0.3337,-0.3334,-0.3295,-0.3299,-0.3291,-0.3288,-0.3276,-0.3261,-0.3261,-0.3265,-0.3265,0,0,0,-0.3374,-0.3386,-0.3366,-0.3355,-0.3345,-0.3336,-0.3332,-0.3301,-0.3292,-0.3287,-0.3275,-0.3261,-0.3261,-0.3265,-0.3265,-0.3301,0,0,0,-0.3375,-0.3393,-0.3368,-0.338,-0.3346,-0.3322,-0.334,-0.3295,-0.329,-0.3276,-0.3261,-0.326,-0.3264,-0.3265,-0.3299,-0.3314,0,0,0,-0.3389,-0.3394,-0.339,-0.3382,-0.3361,-0.3322,-0.3311,-0.3294,-0.3283,-0.3262,-0.326,-0.3264,-0.3265,-0.3297,-0.3311,-0.3323,0,0,0,-0.3411,-0.3421,-0.3391,-0.3398,-0.3361,-0.3344,-0.3311,-0.3297,-0.3283,-0.3261,-0.3264,-0.3265,-0.3297,-0.331,-0.3321,-0.3337,-0.3345,0,0,-0.3436,-0.3425,-0.3428,-0.3399,-0.3392,-0.335,-0.3349,-0.3315,-0.3294,-0.3277,-0.3276,-0.3299,-0.3311,-0.3322,-0.3381,-0.3388,0,0,0,-0.3443,-0.3446,-0.3439,-0.3427,-0.3401,-0.3381,-0.3345,-0.3333,-0.3318,-0.3289,-0.3305,-0.3311,-0.3317,-0.3324,-0.3329,-0.3334,-0.3269,-0.3269,-0.3269,-0.3512,-0.3483,-0.3486,-0.3452,-0.344,-0.3404,-0.3393,-0.337,-0.3345,-0.335,-0.3345,-0.3383,-0.3392,-0.3396,-0.3401,-0.3349,-0.3349,-0.335,-0.335,-0.3548,-0.3547,-0.3514,-0.3505,-0.3476,-0.3468,-0.3435,-0.3417,-0.3407,-0.3384,-0.3388,-0.3366,-0.3404,-0.3407,-0.3352,-0.3352,-0.3351,-0.3351,-0.3351,-0.359,-0.3585,-0.357,-0.355,-0.3538,-0.3503,-0.3495,-0.3468,-0.3443,-0.3447,-0.344,-0.3439,-0.3437,-0.3445,-0.3445,-0.3445,-0.3445,-0.3446,-0.3446,-0.3641,-0.3623,-0.3619,-0.3594,-0.3583,-0.3565,-0.353,-0.3519,-0.35,-0.3481,-0.3481,-0.3457,-0.3412,-0.3402,-0.3448,-0.3447,-0.3447,-0.3447,-0.3447,-0.3691,-0.3676,-0.367,-0.3659,-0.3628,-0.3619,-0.3585,-0.3565,-0.3552,-0.355,-0.3525,-0.3495,-0.3482,-0.3478,-0.347,-0.3529,-0.3529,-0.3529,-0.3529,-0.3729,-0.3719,-0.3708,-0.3693,-0.3674,-0.3643,-0.364,-0.3614,-0.3584,-0.3575,-0.3562,-0.3548,-0.3545,-0.3534,-0.3528,-0.352,-0.3591,-0.3591,-0.3591,-0.3759,-0.3746,-0.3748,-0.3717,-0.3691,-0.367,-0.3667,-0.3653,-0.3615,-0.3593,-0.3567,-0.3565,-0.3542,-0.3536,-0.3515,-0.3506,-0.3491,0,0]},{"header":{"parameterUnit":"m.s-1","parameterCategory":1,"la1":30.2992,"la2":30.254,"lo1":-89.0895,"lo2":-89.0443,"dy":0.0025,"dx":0.0025,"nx":19,"ny":19,"refTime":"2026-04-26T21:00:00:Z","depth":0,"parameterNumber":3,"parameterNumberName":"V-component_of_WINDS"},"data":[0,0,0,3.8866,3.8866,3.8847,3.8847,3.8834,3.8834,0,0,0,0,0,0,0,0,0,0,0,3.888,3.888,3.8866,3.8866,3.8847,3.8847,3.8834,3.8834,0,0,0,0,0,0,0,0,0,0,0,3.888,3.888,3.8881,3.8866,3.8847,3.8846,3.8834,3.8844,0,0,0,0,0,0,0,0,0,0,3.8861,3.8882,3.888,3.8881,3.8866,3.8847,3.8846,3.8844,3.8843,3.8848,0,3.8855,0,3.8844,3.8834,3.8834,0,0,0,3.886,3.8882,3.887,3.8881,3.8866,3.8847,3.8854,3.8844,3.8843,3.8847,3.8855,3.8854,3.8844,3.8834,3.8834,3.8884,3.8885,0,0,3.8861,3.8881,3.8871,3.887,3.8874,3.8854,3.8853,3.8843,3.8852,3.8855,3.8853,3.8844,3.8834,3.8834,3.8884,3.8885,0,0,0,3.8868,3.8882,3.8869,3.8871,3.8866,3.8854,3.8853,3.8853,3.8847,3.8853,3.8844,3.8834,3.8834,3.8883,3.8884,3.893,0,0,0,3.8869,3.8886,3.887,3.8882,3.8867,3.8859,3.8863,3.8848,3.8846,3.8844,3.8834,3.8834,3.8883,3.8884,3.8928,3.8949,0,0,0,3.8879,3.8887,3.8887,3.8883,3.8876,3.8859,3.8853,3.8847,3.8841,3.8834,3.8834,3.8882,3.8883,3.8925,3.8945,3.8969,0,0,0,3.8895,3.8928,3.8888,3.8921,3.8876,3.8888,3.8852,3.886,3.886,3.8834,3.8883,3.8884,3.8925,3.8943,3.8967,3.8993,3.9006,0,0,3.8947,3.8935,3.8952,3.8917,3.8941,3.8889,3.892,3.89,3.8881,3.8884,3.8885,3.8929,3.8945,3.8968,3.9069,3.9079,0,0,0,3.8976,3.8989,3.8991,3.8992,3.8979,3.8969,3.8942,3.8935,3.8937,3.8887,3.8943,3.8952,3.8965,3.8976,3.8985,3.8995,3.889,3.889,3.889,3.9078,3.9052,3.908,3.9053,3.9054,3.9028,3.9026,3.9012,3.8985,3.8999,3.9,3.9064,3.9078,3.9085,3.9096,3.9011,3.9011,3.9011,3.9011,3.9153,3.9168,3.9132,3.9146,3.9119,3.913,3.9106,3.9087,3.9093,3.906,3.9071,3.9038,3.9097,3.9105,3.9014,3.9014,3.9013,3.9013,3.9013,3.9218,3.922,3.9212,3.9211,3.9214,3.9184,3.9193,3.9167,3.9143,3.9153,3.9152,3.9151,3.9148,3.9154,3.9155,3.9155,3.9155,3.9155,3.9155,3.9289,3.9277,3.9288,3.9277,3.9275,3.9269,3.9243,3.924,3.923,3.921,3.921,3.9183,3.9107,3.9089,3.9159,3.9158,3.9158,3.9157,3.9157,3.9375,3.9352,3.9368,3.9367,3.9352,3.9357,3.9324,3.932,3.9314,3.9319,3.9289,3.9237,3.9222,3.9215,3.92,3.9294,3.9294,3.9294,3.9294,3.9431,3.9421,3.9432,3.9431,3.9427,3.9399,3.9419,3.9399,3.9375,3.9369,3.9352,3.933,3.9324,3.9312,3.9303,3.9289,3.9403,3.9403,3.9403,3.9483,3.9471,3.9493,3.947,3.9457,3.9446,3.9464,3.9464,3.9431,3.9407,3.9365,3.936,3.9324,3.9313,3.9288,3.9275,3.9248,0,0]}]]